Location: Santaluz Observatory
(32.9930°N, 117.1510°W)
Time: 22:54:22
(UTC-07:00)

HST - Visible Passes

Search period start: 21 August 2014 00:00
Search period end: 31 August 2014 00:00
Orbit: 547 x 551 km, 28.5° (Epoch: 20 August)

Date Brightness Start Highest point End Pass type
(mag) Time Alt. Az. Time Alt. Az. Time Alt. Az.
21 Aug 2.0 04:37:36 28° S 04:37:57 28° SSE 04:41:34 10° ESE visible
22 Aug 1.8 04:31:04 33° SSE 04:31:04 33° SSE 04:34:46 10° ESE visible
23 Aug 1.8 04:24:34 35° SSE 04:24:34 35° SSE 04:27:55 10° ESE visible
24 Aug 1.9 04:18:04 35° SE 04:18:04 35° SE 04:21:03 10° ESE visible
25 Aug 2.2 04:11:36 31° SE 04:11:36 31° SE 04:14:09 10° ESE visible
25 Aug 1.6 05:47:26 10° WSW 05:51:20 38° S 05:55:14 10° ESE visible
26 Aug 2.5 04:05:12 25° ESE 04:05:12 25° ESE 04:07:13 10° ESE visible
26 Aug 1.7 05:40:47 11° WSW 05:44:23 33° SSW 05:48:10 10° SE visible
27 Aug 3.0 03:58:52 20° ESE 03:58:52 20° ESE 04:00:17 10° ESE visible
27 Aug 1.9 05:34:27 14° WSW 05:37:24 29° SSW 05:41:03 10° SE visible
28 Aug 3.4 03:52:38 14° ESE 03:52:38 14° ESE 03:53:19 10° ESE visible
28 Aug 2.1 05:28:13 16° WSW 05:30:25 24° SSW 05:33:50 10° SE visible
29 Aug 2.3 05:22:05 17° SW 05:23:25 20° SSW 05:26:30 10° SSE visible
30 Aug 2.6 05:16:03 16° SSW 05:16:24 16° SSW 05:18:58 10° SSE visible
